User: anonymous   Login
Location: Montauk Point State Park
(41.0718°N, 71.8593°W)
Time: 16:19:32
(UTC-04:00)
Language:

Cosmos 1844 - Orbit

View from above orbital plane
View from above orbital plane
View from above satellite
View from above satellite

Ground track
Ground track

The orbit data is extracted from the following two-line orbital elements,

1 17973U 87041A   15244.14332951 -.00000178  00000-0 -67709-4 0  9992
2 17973  70.8983 214.0634 0030141  23.5787 336.6708 14.14007353460545
Epoch (UTC): 01 September 2015 03:26:23
Eccentricity: 0.0030141
inclination: 70.8983°
perigee height: 824 km
apogee height: 867 km
right ascension of ascending node: 214.0634°
argument of perigee: 23.5787°
revolutions per day: 14.14007353
mean anomaly at epoch: 336.6708°
orbit number at epoch: 46054

The dashed part of the orbit path shows where the satellite is in the earth's shadow,  

DLR